When you browse on this site, cookies collect data to enhance your experience and personalize the content and advertising you see.
Visit our Privacy Policy to learn more. By continuing to use the site, you agree to this use of cookies and data.
  • In Lithuania
  • List of Countries
  • For 7 days
  • Water Temperature
  • Satellite Maps
  • Weather Map
  • Weather Widgets
  • user-avatar
    Login

    Hourly Weather Pyrchino

    Today, 23 July, Tuesday

    Time Temperature Precipitation Wind Pressure Humidity
    00:00 +17°C° 0 mm 3 mps 749 mmHg 60%
    01:00 +16°C° 0 mm 3 mps 749 mmHg 61%
    02:00 +16°C° 0 mm 2 mps 749 mmHg 62%
    03:00 +16°C° 0 mm 2 mps 749 mmHg 62%
    04:00 +16°C° 0 mm 2 mps 749 mmHg 62%
    05:00 +17°C° 0 mm 2 mps 749 mmHg 62%
    06:00 +18°C° 0 mm 2 mps 749 mmHg 59%
    07:00 +19°C° 0 mm 2 mps 748 mmHg 55%
    08:00 +21°C° 0 mm 2 mps 748 mmHg 51%
    09:00 +23°C° 0 mm 2 mps 748 mmHg 48%
    10:00 +24°C° 0 mm 2 mps 748 mmHg 45%
    11:00 +25°C° 0 mm 2 mps 748 mmHg 42%
    12:00 +26°C° 0 mm 3 mps 748 mmHg 40%
    13:00 +27°C° 0 mm 4 mps 748 mmHg 37%
    14:00 +27°C° 0 mm 4 mps 747 mmHg 35%
    15:00 +26°C° 0 mm 5 mps 747 mmHg 43%
    16:00 +23°C° 0 mm 5 mps 747 mmHg 51%
    17:00 +21°C° 0 mm 5 mps 747 mmHg 58%
    18:00 +20°C° 0 mm 4 mps 747 mmHg 64%
    19:00 +19°C° 0 mm 3 mps 747 mmHg 70%
    20:00 +18°C° 0 mm 2 mps 747 mmHg 76%
    21:00 +17°C° 0.1 mm 2 mps 747 mmHg 77%
    22:00 +17°C° 0.1 mm 2 mps 747 mmHg 78%
    23:00 +17°C° 0.1 mm 2 mps 747 mmHg 79%

    Tomorrow, 24 July, Wednesday

    Time Temperature Precipitation Wind Pressure Humidity
    00:00 +17°C° 0 mm 2 mps 746 mmHg 79%
    01:00 +18°C° 0 mm 1 mps 746 mmHg 79%
    02:00 +16°C° 0 mm 1 mps 746 mmHg 79%
    03:00 +16°C° 0.2 mm 1 mps 746 mmHg 83%
    04:00 +16°C° 0.2 mm 2 mps 746 mmHg 87%
    05:00 +15°C° 0.2 mm 2 mps 747 mmHg 91%
    06:00 +17°C° 0 mm 2 mps 747 mmHg 85%
    07:00 +19°C° 0 mm 2 mps 746 mmHg 78%
    08:00 +20°C° 0 mm 2 mps 746 mmHg 72%
    09:00 +21°C° 0.3 mm 2 mps 746 mmHg 66%
    10:00 +24°C° 0.3 mm 3 mps 746 mmHg 61%
    11:00 +25°C° 0.3 mm 3 mps 746 mmHg 55%
    12:00 +25°C° 0.6 mm 3 mps 746 mmHg 56%
    13:00 +25°C° 0.6 mm 3 mps 746 mmHg 56%
    14:00 +25°C° 0.6 mm 2 mps 746 mmHg 57%
    15:00 +22°C° 0.8 mm 3 mps 747 mmHg 67%
    16:00 +21°C° 0.8 mm 3 mps 747 mmHg 77%
    17:00 +19°C° 0.8 mm 3 mps 747 mmHg 87%
    18:00 +18°C° 0.1 mm 3 mps 747 mmHg 88%
    19:00 +18°C° 0.1 mm 3 mps 747 mmHg 90%
    20:00 +17°C° 0.1 mm 2 mps 747 mmHg 91%
    21:00 +16°C° 0 mm 2 mps 747 mmHg 92%
    22:00 +16°C° 0 mm 2 mps 747 mmHg 94%
    23:00 +15°C° 0 mm 2 mps 747 mmHg 95%

    Day after tomorrow, 25 July, Thursday

    Time Temperature Precipitation Wind Pressure Humidity
    00:00 +15°C° 0 mm 2 mps 747 mmHg 95%
    01:00 +15°C° 0 mm 2 mps 747 mmHg 96%
    02:00 +14°C° 0 mm 2 mps 747 mmHg 96%
    03:00 +15°C° 0 mm 2 mps 748 mmHg 96%
    04:00 +15°C° 0 mm 2 mps 748 mmHg 95%
    05:00 +14°C° 0 mm 3 mps 748 mmHg 95%
    06:00 +17°C° 0 mm 3 mps 748 mmHg 88%
    07:00 +18°C° 0 mm 3 mps 748 mmHg 82%
    08:00 +19°C° 0 mm 3 mps 748 mmHg 76%
    09:00 +20°C° 0.1 mm 4 mps 748 mmHg 73%
    10:00 +21°C° 0.1 mm 5 mps 748 mmHg 70%
    11:00 +22°C° 0.1 mm 6 mps 748 mmHg 66%
    12:00 +21°C° 0.1 mm 6 mps 748 mmHg 66%
    13:00 +21°C° 0.1 mm 5 mps 748 mmHg 66%
    14:00 +21°C° 0.1 mm 5 mps 748 mmHg 66%
    15:00 +21°C° 0.2 mm 5 mps 748 mmHg 66%
    16:00 +21°C° 0.2 mm 5 mps 748 mmHg 65%
    17:00 +22°C° 0.2 mm 5 mps 748 mmHg 65%
    18:00 +21°C° 0.1 mm 5 mps 748 mmHg 70%
    19:00 +19°C° 0.1 mm 4 mps 748 mmHg 75%
    20:00 +18°C° 0.1 mm 3 mps 749 mmHg 80%
    21:00 +17°C° 0 mm 3 mps 748 mmHg 80%
    22:00 +16°C° 0 mm 3 mps 748 mmHg 80%
    23:00 +14°C° 0 mm 4 mps 748 mmHg 80%

    26 July, Friday

    Time Temperature Precipitation Wind Pressure Humidity
    00:00 +14°C° 0 mm 4 mps 749 mmHg 80%
    01:00 +14°C° 0 mm 3 mps 749 mmHg 81%
    02:00 +13°C° 0 mm 3 mps 749 mmHg 81%
    03:00 +14°C° 0 mm 4 mps 749 mmHg 80%
    04:00 +14°C° 0 mm 4 mps 749 mmHg 79%
    05:00 +15°C° 0 mm 4 mps 749 mmHg 78%
    06:00 +17°C° 0 mm 4 mps 749 mmHg 71%
    07:00 +19°C° 0 mm 5 mps 750 mmHg 64%
    08:00 +20°C° 0 mm 5 mps 750 mmHg 57%
    09:00 +21°C° 0 mm 5 mps 750 mmHg 53%
    10:00 +22°C° 0 mm 5 mps 750 mmHg 50%
    11:00 +23°C° 0 mm 6 mps 750 mmHg 46%
    12:00 +23°C° 0 mm 6 mps 750 mmHg 45%
    13:00 +24°C° 0 mm 6 mps 750 mmHg 43%
    14:00 +24°C° 0 mm 6 mps 749 mmHg 41%
    15:00 +25°C° 0 mm 5 mps 749 mmHg 42%
    16:00 +25°C° 0 mm 5 mps 749 mmHg 42%
    17:00 +25°C° 0 mm 5 mps 749 mmHg 42%
    18:00 +22°C° 0 mm 4 mps 749 mmHg 50%
    19:00 +20°C° 0 mm 3 mps 750 mmHg 57%
    20:00 +18°C° 0 mm 2 mps 750 mmHg 65%
    21:00 +17°C° 0 mm 2 mps 750 mmHg 67%
    22:00 +16°C° 0 mm 2 mps 750 mmHg 70%
    23:00 +15°C° 0 mm 2 mps 750 mmHg 73%

    27 July, Saturday

    Time Temperature Precipitation Wind Pressure Humidity
    00:00 +15°C° 0 mm 2 mps 749 mmHg 73%
    01:00 +15°C° 0 mm 2 mps 749 mmHg 73%
    02:00 +14°C° 0 mm 2 mps 749 mmHg 74%
    03:00 +15°C° 0 mm 2 mps 749 mmHg 72%
    04:00 +15°C° 0 mm 2 mps 749 mmHg 71%
    05:00 +15°C° 0 mm 2 mps 749 mmHg 70%
    06:00 +18°C° 0 mm 3 mps 749 mmHg 64%
    07:00 +20°C° 0 mm 3 mps 749 mmHg 57%
    08:00 +22°C° 0 mm 3 mps 749 mmHg 51%
    09:00 +24°C° 0 mm 3 mps 748 mmHg 47%
    10:00 +26°C° 0 mm 3 mps 748 mmHg 43%
    11:00 +27°C° 0 mm 4 mps 748 mmHg 39%
    12:00 +27°C° 0 mm 4 mps 748 mmHg 39%
    13:00 +27°C° 0 mm 4 mps 748 mmHg 39%
    14:00 +28°C° 0 mm 4 mps 748 mmHg 39%
    15:00 +26°C° 0.2 mm 4 mps 747 mmHg 50%
    16:00 +23°C° 0.2 mm 4 mps 747 mmHg 62%
    17:00 +21°C° 0.2 mm 3 mps 747 mmHg 73%
    18:00 +20°C° 0.2 mm 3 mps 747 mmHg 77%
    19:00 +19°C° 0.2 mm 2 mps 747 mmHg 82%
    20:00 +19°C° 0.2 mm 1 mps 747 mmHg 86%
    21:00 +19°C° 0.3 mm 1 mps 748 mmHg 88%
    22:00 +17°C° 0.3 mm 2 mps 748 mmHg 89%
    23:00 +16°C° 0.3 mm 2 mps 748 mmHg 91%

    28 July, Sunday

    Time Temperature Precipitation Wind Pressure Humidity
    00:00 +16°C° 0.4 mm 2 mps 748 mmHg 91%
    01:00 +15°C° 0.4 mm 1 mps 748 mmHg 92%
    02:00 +15°C° 0.4 mm 1 mps 748 mmHg 93%
    03:00 +15°C° 0.3 mm 1 mps 748 mmHg 92%
    04:00 +15°C° 0.3 mm 1 mps 749 mmHg 91%
    05:00 +15°C° 0.3 mm 1 mps 749 mmHg 90%
    06:00 +16°C° 0.2 mm 1 mps 749 mmHg 87%
    07:00 +18°C° 0.2 mm 1 mps 750 mmHg 83%
    08:00 +19°C° 0.2 mm 1 mps 750 mmHg 80%
    09:00 +21°C° 0 mm 1 mps 750 mmHg 74%
    10:00 +22°C° 0 mm 1 mps 750 mmHg 68%
    11:00 +24°C° 0 mm 1 mps 750 mmHg 62%
    12:00 +24°C° 0.3 mm 1 mps 750 mmHg 62%
    13:00 +25°C° 0.3 mm 1 mps 750 mmHg 63%
    14:00 +25°C° 0.3 mm 1 mps 750 mmHg 63%
    15:00 +25°C° 0.2 mm 1 mps 750 mmHg 63%
    16:00 +26°C° 0.2 mm 1 mps 750 mmHg 62%
    17:00 +26°C° 0.2 mm 2 mps 750 mmHg 61%
    18:00 +24°C° 0.2 mm 2 mps 750 mmHg 67%
    19:00 +21°C° 0.2 mm 2 mps 750 mmHg 74%
    20:00 +20°C° 0.2 mm 2 mps 750 mmHg 81%
    21:00 +19°C° 0 mm 2 mps 750 mmHg 83%
    22:00 +18°C° 0 mm 2 mps 750 mmHg 85%
    23:00 +17°C° 0 mm 2 mps 750 mmHg 87%
    Show more